This is the latest recevied weather packets stored in our database for station/object SP5FLS-15. If no packets are shown the sender has not sent any weather packets the latest 10 day(s).
| Time | Temp. | Humidity | Pressure | Rain* | Wind** | Luminosity | Snow |
|---|---|---|---|---|---|---|---|
| 1788264602 | 17.78° C | 59% | 1013.7 hPa | - | - | - | - |
| 1788264302 | 17.78° C | 58% | 1013.7 hPa | - | - | - | - |
| 1788264025 | 18.33° C | 66% | 1013.7 hPa | - | - | - | - |
| 1788263703 | 18.33° C | 70% | 1013.8 hPa | - | - | - | - |
| 1788263402 | 18.33° C | 63% | 1013.7 hPa | - | - | - | - |
| 1788263102 | 17.78° C | 54% | 1013.7 hPa | - | - | - | - |
| 1788262802 | 17.78° C | 66% | 1013.6 hPa | - | - | - | - |
| 1788262503 | 18.33° C | 65% | 1013.6 hPa | - | - | - | - |
| 1788262218 | 18.33° C | 72% | 1013.6 hPa | - | - | - | - |
| 1788261903 | 18.33° C | 66% | 1013.6 hPa | - | - | - | - |
| 1788261602 | 18.33° C | 68% | 1013.5 hPa | - | - | - | - |
| 1788261303 | 18.89° C | 72% | 1013.5 hPa | - | - | - | - |
| 1788261002 | 18.89° C | 71% | 1013.5 hPa | - | - | - | - |
| 1788260703 | 18.89° C | 62% | 1013.5 hPa | - | - | - | - |
| 1788260403 | 18.89° C | 62% | 1013.4 hPa | - | - | - | - |
| 1788260102 | 18.89° C | 70% | 1013.3 hPa | - | - | - | - |
| 1788259802 | 19.44° C | 68% | 1013.2 hPa | - | - | - | - |
| 1788259502 | 19.44° C | 58% | 1013.1 hPa | - | - | - | - |
| 1788259203 | 18.33° C | 50% | 1013.1 hPa | - | - | - | - |
| 1788258902 | 18.33° C | 48% | 1013.3 hPa | - | - | - | - |
| 1788258602 | 17.78° C | 49% | 1013.2 hPa | - | - | - | - |
| 1788258303 | 17.78° C | 50% | 1013.2 hPa | - | - | - | - |
| 1788258002 | 17.78° C | 48% | 1013.3 hPa | - | - | - | - |
| 1788257702 | 17.78° C | 33% | 1013.2 hPa | - | - | - | - |
| 1788257402 | 17.78° C | 46% | 1013.1 hPa | - | - | - | - |
* Rain since midnight (hover to see other rain measurements)
** Current wind speed in m/s (hover to see current wind gust speed)